Powrót do katalogu

RESURS O1 DEB

AktywnySSO
NORAD 23344·DEBRIS·🇷🇺 Russia

Wystrzelony Nov 4, 1994 z Baikonur Cosmodrome

Loading…

Następne Przeloty (najbliższe 24 godziny)

TLE

ŚwieżeSource: Space-Track

Epoka: Sep 14, 2026, 11:42 UTC

1 23344U 94074C   26257.48771772  .00000503  00000-0  10465-3 0  9992
2 23344  97.9645 262.3174 0116863 155.9158 356.7052 14.60041402686260

Śledź RESURS O1 DEB w czasie rzeczywistym z AllMySat

Download on the App Store